Weather History for Rome, GA

Change the Weather History Date:

Tuesday, November 20, 2012

  Actual Average Record
Temperature  
Mean Temperature 56 °F 49 °F  
Max Temperature 70 °F 61 °F 73 °F (2007)
Min Temperature 42 °F 37 °F 26 °F (2008)
Degree Days  
Heating Degree Days 9 16  
Month to date heating degree days 254  
Since 1 July heating degree days 431  
Growing Degree Days 6 (Base 50)    
Moisture  
Dew Point 43 °F    
Average Humidity 70    
Maximum Humidity 93    
Minimum Humidity 28    
Precipitation  
Precipitation 0.00 in 0.18 in 0.55 in (2002)
Month to date precipitation 2.98  
Snow  
Snow 0.00 in - - ()
Month to date snowfall  
Since 1 July snowfall  
Since 1 September snowfall  
Snow Depth -    
Sea Level Pressure  
Sea Level Pressure 30.13 in    
Wind  
Wind Speed 1 mph (NW)    
Max Wind Speed 7 mph    
Max Gust Speed -    
Visibility 10 miles    
Events      
T = Trace of Precipitation, MM = Missing Value Source: NWS Daily Summary

Daily Weather History Graph

Daily Weather History Graph

Search for Another Location

Airport:

Trip Planner

Search our weather history database for the weather conditions in past years. The results will help you decide how hot, cold, wet, or windy it might be!

Date:

Astronomy

Nov. 20, 2012 Rise Set
Actual Time 7:19 AM EST 5:33 PM EST
Civil Twilight 6:52 AM EST 6:00 PM EST
Nautical Twilight 6:21 AM EST 6:31 PM EST
Astronomical Twilight 5:51 AM EST 7:01 PM EST
Moon 1:01 PM EST (11/20) No Moon Set
Length of Visible Light 11h 08m
Length of Day
10h 14m
Waxing Crescent, 51% of the Moon is Illuminated
Nov 20
Waxing Crescent
Nov 28
Full
Dec 6
Last Quarter
Dec 13
New
Dec 20
First Quarter

Hourly Weather History & Observations

Time (EST) Temp. Windchill Dew Point Humidity Pressure Visibility Wind Dir Wind Speed Gust Speed Precip Events Conditions
12:53 AM 46.0 °F 44.8 °F 43.0 °F 89% 30.18 in 10.0 mi West 3.5 mph - N/A   Mostly Cloudy
1:53 AM 46.9 °F - 43.0 °F 86% 30.17 in 10.0 mi Calm Calm - N/A   Mostly Cloudy
2:53 AM 46.0 °F - 43.0 °F 89% 30.16 in 10.0 mi Calm Calm - N/A   Mostly Cloudy
3:53 AM 46.0 °F - 43.0 °F 89% 30.15 in 10.0 mi Calm Calm - N/A   Mostly Cloudy
4:53 AM 45.0 °F - 43.0 °F 93% 30.15 in 10.0 mi Calm Calm - N/A   Mostly Cloudy
5:53 AM 44.1 °F - 42.1 °F 93% 30.16 in 10.0 mi Calm Calm - N/A   Scattered Clouds
6:53 AM 43.0 °F - 41.0 °F 93% 30.17 in 10.0 mi Calm Calm - N/A   Scattered Clouds
7:53 AM 42.1 °F - 39.9 °F 92% 30.18 in 10.0 mi Calm Calm - N/A   Clear
8:53 AM 48.0 °F - 44.1 °F 86% 30.19 in 10.0 mi Calm Calm - N/A   Clear
9:53 AM 55.0 °F - 45.0 °F 69% 30.19 in 10.0 mi Calm Calm - N/A   Clear
10:53 AM 61.0 °F - 44.1 °F 54% 30.18 in 10.0 mi Calm Calm - N/A   Clear
11:53 AM 66.0 °F - 43.0 °F 43% 30.14 in 10.0 mi Calm Calm - N/A   Clear
12:53 PM 68.0 °F - 42.1 °F 39% 30.10 in 10.0 mi NNW 3.5 mph - N/A   Clear
1:53 PM 69.1 °F - 41.0 °F 36% 30.08 in 10.0 mi NNW 6.9 mph - N/A   Clear
2:53 PM 70.0 °F - 41.0 °F 35% 30.06 in 10.0 mi Variable 3.5 mph - N/A   Clear
3:53 PM 70.0 °F - 42.1 °F 36% 30.06 in 10.0 mi NW 4.6 mph - N/A   Clear
4:53 PM 68.0 °F - 42.1 °F 39% 30.05 in 10.0 mi West 3.5 mph - N/A   Clear
5:53 PM 60.1 °F - 43.0 °F 53% 30.06 in 10.0 mi Calm Calm - N/A   Clear
6:53 PM 53.1 °F - 43.0 °F 69% 30.07 in 10.0 mi Calm Calm - N/A   Clear
7:53 PM 50.0 °F - 43.0 °F 77% 30.09 in 10.0 mi Calm Calm - N/A   Clear
8:53 PM 48.9 °F - 43.0 °F 80% 30.10 in 10.0 mi Calm Calm - N/A   Clear
9:53 PM 48.0 °F - 43.0 °F 83% 30.11 in 10.0 mi Calm Calm - N/A   Overcast
10:53 PM 48.0 °F - 43.0 °F 83% 30.11 in 10.0 mi Calm Calm - N/A   Overcast
11:53 PM 48.0 °F - 44.1 °F 86% 30.10 in 10.0 mi Calm Calm - N/A   Overcast